Reno, NV

2:30 PM PDT on April 25, 2018 (GMT -0700)
Reno-Tahoe International

Weather History for KRNO - January, 2015

Change the Weather History Date:

Friday, January 9, 2015

  Actual Average Record
Temperature  
Mean Temperature 38 °F 35 °F  
Max Temperature 49 °F 45 °F 68 °F (1990)
Min Temperature 26 °F 25 °F -18 °F (1890)
Degree Days  
Heating Degree Days 27 30  
Month to date heating degree days 262 272  
Since 1 July heating degree days 1853 2296  
Cooling Degree Days 0 0  
Month to date cooling degree days 0 0  
Year to date cooling degree days 0 0  
Moisture  
Dew Point 28 °F    
Average Humidity 69    
Maximum Humidity 92    
Minimum Humidity 46    
Precipitation  
Precipitation 0.00 in 0.04 in 0.65 in (1909)
Month to date precipitation 0.00 0.33  
Year to date precipitation 0.00 0.33  
Snow  
Snow 0.00 in 0.20 in 5.30 in (1935)
Month to date snowfall 0.0 2.1  
Since 1 July snowfall 2.2 10.5  
Snow Depth 0.00 in    
Sea Level Pressure  
Sea Level Pressure 30.11 in    
Wind  
Wind Speed 1 mph (SSE)    
Max Wind Speed 6 mph    
Max Gust Speed 6 mph    
Visibility 10 miles    
Events      
T = Trace of Precipitation, MM = Missing Value Source: NWS Daily Summary

Daily Weather History Graph

Daily Weather History Graph

Search for Another Location

Airport or City:

Astronomy

Jan. 09, 2015 Rise Set
Actual Time 7:19 AM PST 4:53 PM PST
Civil Twilight 6:49 AM PST 5:23 PM PST
Nautical Twilight 6:16 AM PST 5:56 PM PST
Astronomical Twilight 5:43 AM PST 6:28 PM PST
Moon 9:30 PM PST (1/9) 9:39 AM PST (1/9)
Length of Visible Light 10h 33m
Length of Day
9h 33m
Waning Gibbous, 81% of the Moon is Illuminated
Jan 9
Waning Gibbous
Jan 13
Last Quarter
Jan 20
New
Jan 26
First Quarter
Feb 3
Full

Hourly Weather History & Observations

Time (PST) Temp. Windchill Dew Point Humidity Pressure Visibility Wind Dir Wind Speed Gust Speed Precip Events Conditions
12:55 AM 33.1 °F - 28.0 °F 82% 30.13 in 10.0 mi Calm Calm - N/A   Mostly Cloudy
1:55 AM 32.0 °F - 28.0 °F 85% 30.13 in 10.0 mi Calm Calm - N/A   Mostly Cloudy
2:55 AM 30.9 °F - 27.0 °F 85% 30.13 in 10.0 mi Calm Calm - N/A   Partly Cloudy
3:55 AM 28.9 °F - 26.1 °F 89% 30.12 in 10.0 mi Calm Calm - N/A   Partly Cloudy
4:55 AM 28.0 °F - 25.0 °F 88% 30.13 in 10.0 mi Calm Calm - N/A   Partly Cloudy
5:55 AM 28.0 °F - 25.0 °F 88% 30.13 in 10.0 mi Calm Calm - N/A   Partly Cloudy
6:55 AM 28.0 °F - 26.1 °F 92% 30.15 in 10.0 mi Calm Calm - N/A   Scattered Clouds
7:55 AM 27.0 °F - 25.0 °F 92% 30.18 in 10.0 mi Calm Calm - N/A   Mostly Cloudy
8:55 AM 30.9 °F 27.5 °F 27.0 °F 85% 30.20 in 10.0 mi SSW 3.5 mph - N/A   Mostly Cloudy
9:55 AM 36.0 °F - 28.9 °F 76% 30.19 in 10.0 mi Calm Calm - N/A   Overcast
10:55 AM 39.9 °F - 28.9 °F 65% 30.15 in 10.0 mi Calm Calm - N/A   Overcast
11:55 AM 44.1 °F - 30.0 °F 58% 30.11 in 10.0 mi Calm Calm - N/A   Overcast
12:55 PM 44.6 °F 43.1 °F 28.4 °F 53% 30.08 in 10.0 mi South 3.5 mph - N/A   Overcast
1:55 PM 46.9 °F - 28.9 °F 50% 30.06 in 10.0 mi Calm Calm - N/A   Overcast
2:55 PM 48.0 °F - 28.9 °F 48% 30.06 in 10.0 mi Calm Calm - N/A   Overcast
3:55 PM 48.0 °F - 28.0 °F 46% 30.06 in 10.0 mi Calm Calm - N/A   Overcast
4:55 PM 46.9 °F - 28.9 °F 50% 30.06 in 10.0 mi Calm Calm - N/A   Overcast
5:55 PM 45.0 °F - 28.9 °F 53% 30.07 in 10.0 mi Calm Calm - N/A   Overcast
6:55 PM 45.0 °F - 30.9 °F 58% 30.07 in 10.0 mi Calm Calm - N/A   Overcast
7:55 PM 42.1 °F - 30.9 °F 65% 30.09 in 10.0 mi Calm Calm - N/A   Overcast
8:55 PM 42.1 °F 40.2 °F 30.9 °F 65% 30.08 in 10.0 mi ENE 3.5 mph - N/A   Mostly Cloudy
9:55 PM 41.0 °F - 30.9 °F 67% 30.07 in 10.0 mi Calm Calm - N/A   Mostly Cloudy
10:55 PM 37.9 °F 34.4 °F 30.9 °F 76% 30.06 in 10.0 mi South 4.6 mph - N/A   Mostly Cloudy
11:55 PM 39.0 °F - 32.0 °F 76% 30.04 in 10.0 mi Calm Calm - N/A   Overcast